• In Netherlands
  • List of Countries
  • For 7 days
  • Water Temperature
  • Satellite Maps
  • Weather Map
  • Weather Widgets
  • user-avatar
    Login

    Hourly Weather Shumen

    Today, 30 March, Thursday

    Time Temperature Precipitation Wind Pressure Humidity
    00:00 +9°C° 0 mm 1 mps 732 mmHg 73%
    01:00 +9°C° 0 mm 1 mps 732 mmHg 73%
    02:00 +9°C° 0 mm 1 mps 731 mmHg 74%
    03:00 +9°C° 0 mm 1 mps 731 mmHg 74%
    04:00 +9°C° 0 mm 1 mps 731 mmHg 74%
    05:00 +9°C° 0 mm 1 mps 731 mmHg 73%
    06:00 +9°C° 0 mm 2 mps 731 mmHg 68%
    07:00 +12°C° 0 mm 2 mps 732 mmHg 63%
    08:00 +14°C° 0 mm 2 mps 732 mmHg 58%
    09:00 +14°C° 0 mm 3 mps 732 mmHg 57%
    10:00 +15°C° 0 mm 4 mps 733 mmHg 56%
    11:00 +16°C° 0 mm 5 mps 733 mmHg 55%
    12:00 +16°C° 0.2 mm 5 mps 733 mmHg 56%
    13:00 +16°C° 0.2 mm 5 mps 733 mmHg 58%
    14:00 +17°C° 0.2 mm 5 mps 733 mmHg 59%
    15:00 +15°C° 0.5 mm 5 mps 734 mmHg 63%
    16:00 +14°C° 0.5 mm 5 mps 734 mmHg 68%
    17:00 +13°C° 0.5 mm 4 mps 734 mmHg 72%
    18:00 +12°C° 0.1 mm 4 mps 734 mmHg 76%
    19:00 +11°C° 0.1 mm 3 mps 735 mmHg 79%
    20:00 +10°C° 0.1 mm 2 mps 735 mmHg 82%
    21:00 +9°C° 0 mm 3 mps 736 mmHg 82%
    22:00 +9°C° 0 mm 3 mps 736 mmHg 81%
    23:00 +7°C° 0 mm 4 mps 736 mmHg 80%

    Tomorrow, 31 March, Friday

    Time Temperature Precipitation Wind Pressure Humidity
    00:00 +7°C° 0 mm 3 mps 737 mmHg 81%
    01:00 +7°C° 0 mm 3 mps 737 mmHg 82%
    02:00 +5°C° 0 mm 3 mps 737 mmHg 83%
    03:00 +5°C° 0 mm 3 mps 737 mmHg 85%
    04:00 +5°C° 0 mm 3 mps 737 mmHg 87%
    05:00 +4°C° 0 mm 3 mps 738 mmHg 89%
    06:00 +5°C° 0 mm 3 mps 738 mmHg 84%
    07:00 +5°C° 0 mm 4 mps 738 mmHg 80%
    08:00 +6°C° 0 mm 4 mps 739 mmHg 76%
    09:00 +7°C° 0 mm 4 mps 739 mmHg 69%
    10:00 +8°C° 0 mm 5 mps 739 mmHg 62%
    11:00 +9°C° 0 mm 5 mps 739 mmHg 54%
    12:00 +9°C° 0 mm 5 mps 739 mmHg 51%
    13:00 +10°C° 0 mm 5 mps 739 mmHg 48%
    14:00 +10°C° 0 mm 5 mps 739 mmHg 45%
    15:00 +10°C° 0 mm 5 mps 738 mmHg 46%
    16:00 +10°C° 0 mm 4 mps 738 mmHg 47%
    17:00 +10°C° 0 mm 4 mps 738 mmHg 48%
    18:00 +8°C° 0 mm 3 mps 738 mmHg 56%
    19:00 +5°C° 0 mm 3 mps 738 mmHg 65%
    20:00 +4°C° 0 mm 2 mps 738 mmHg 73%
    21:00 +4°C° 0 mm 2 mps 737 mmHg 77%
    22:00 +4°C° 0 mm 1 mps 737 mmHg 81%
    23:00 +3°C° 0 mm 1 mps 737 mmHg 85%

    Day after tomorrow, 1 April, Saturday

    Time Temperature Precipitation Wind Pressure Humidity
    00:00 +2°C° 0 mm 1 mps 737 mmHg 85%
    01:00 +2°C° 0 mm 1 mps 736 mmHg 85%
    02:00 0°C° 0 mm 0 mps 736 mmHg 86%
    03:00 0°C° 0 mm 0 mps 736 mmHg 85%
    04:00 0°C° 0 mm 0 mps 736 mmHg 85%
    05:00 0°C° 0 mm 0 mps 735 mmHg 84%
    06:00 +2°C° 0 mm 0 mps 736 mmHg 75%
    07:00 +4°C° 0 mm 0 mps 736 mmHg 66%
    08:00 +6°C° 0 mm 0 mps 736 mmHg 56%
    09:00 +8°C° 0 mm 1 mps 737 mmHg 50%
    10:00 +10°C° 0 mm 1 mps 737 mmHg 43%
    11:00 +12°C° 0 mm 2 mps 737 mmHg 37%
    12:00 +13°C° 0 mm 2 mps 737 mmHg 35%
    13:00 +14°C° 0 mm 2 mps 736 mmHg 34%
    14:00 +14°C° 0 mm 2 mps 736 mmHg 32%
    15:00 +14°C° 0 mm 2 mps 736 mmHg 36%
    16:00 +14°C° 0 mm 2 mps 736 mmHg 39%
    17:00 +12°C° 0 mm 3 mps 735 mmHg 43%
    18:00 +10°C° 0 mm 2 mps 735 mmHg 52%
    19:00 +7°C° 0 mm 2 mps 735 mmHg 61%
    20:00 +5°C° 0 mm 2 mps 736 mmHg 69%
    21:00 +4°C° 0 mm 2 mps 736 mmHg 72%
    22:00 +4°C° 0 mm 2 mps 736 mmHg 74%
    23:00 +3°C° 0 mm 2 mps 736 mmHg 77%

    2 April, Sunday

    Time Temperature Precipitation Wind Pressure Humidity
    00:00 +2°C° 0 mm 2 mps 736 mmHg 76%
    01:00 +2°C° 0 mm 2 mps 736 mmHg 76%
    02:00 +2°C° 0 mm 1 mps 735 mmHg 75%
    03:00 +2°C° 0 mm 1 mps 735 mmHg 74%
    04:00 +2°C° 0 mm 1 mps 735 mmHg 72%
    05:00 +2°C° 0 mm 1 mps 735 mmHg 71%
    06:00 +4°C° 0 mm 1 mps 736 mmHg 64%
    07:00 +5°C° 0 mm 1 mps 736 mmHg 57%
    08:00 +6°C° 0 mm 2 mps 737 mmHg 50%
    09:00 +8°C° 0 mm 2 mps 737 mmHg 45%
    10:00 +11°C° 0 mm 3 mps 737 mmHg 39%
    11:00 +13°C° 0 mm 3 mps 737 mmHg 33%
    12:00 +13°C° 0 mm 3 mps 737 mmHg 33%
    13:00 +14°C° 0 mm 3 mps 737 mmHg 33%
    14:00 +16°C° 0 mm 3 mps 737 mmHg 33%
    15:00 +14°C° 0 mm 3 mps 736 mmHg 37%
    16:00 +14°C° 0 mm 3 mps 736 mmHg 42%
    17:00 +13°C° 0 mm 3 mps 736 mmHg 46%
    18:00 +11°C° 0 mm 3 mps 736 mmHg 53%
    19:00 +8°C° 0 mm 3 mps 736 mmHg 60%
    20:00 +6°C° 0 mm 2 mps 736 mmHg 67%
    21:00 +6°C° 0 mm 2 mps 736 mmHg 68%
    22:00 +5°C° 0 mm 2 mps 736 mmHg 69%
    23:00 +4°C° 0 mm 2 mps 736 mmHg 70%

    3 April, Monday

    Time Temperature Precipitation Wind Pressure Humidity
    00:00 +4°C° 0 mm 2 mps 735 mmHg 71%
    01:00 +4°C° 0 mm 2 mps 735 mmHg 72%
    02:00 +5°C° 0 mm 1 mps 735 mmHg 72%
    03:00 +5°C° 0 mm 1 mps 735 mmHg 73%
    04:00 +4°C° 0 mm 1 mps 734 mmHg 74%
    05:00 +4°C° 0 mm 1 mps 734 mmHg 75%
    06:00 +6°C° 0 mm 1 mps 734 mmHg 70%
    07:00 +8°C° 0 mm 1 mps 734 mmHg 66%
    08:00 +9°C° 0 mm 2 mps 735 mmHg 61%
    09:00 +12°C° 0 mm 2 mps 735 mmHg 56%
    10:00 +14°C° 0 mm 2 mps 735 mmHg 51%
    11:00 +16°C° 0 mm 2 mps 735 mmHg 46%
    12:00 +17°C° 0 mm 2 mps 734 mmHg 44%
    13:00 +17°C° 0 mm 2 mps 734 mmHg 43%
    14:00 +18°C° 0 mm 2 mps 734 mmHg 41%
    15:00 +18°C° 0 mm 2 mps 733 mmHg 44%
    16:00 +17°C° 0 mm 2 mps 733 mmHg 47%
    17:00 +17°C° 0 mm 3 mps 733 mmHg 50%
    18:00 +15°C° 0 mm 2 mps 732 mmHg 58%
    19:00 +12°C° 0 mm 2 mps 732 mmHg 67%
    20:00 +9°C° 0 mm 2 mps 732 mmHg 75%
    21:00 +8°C° 0 mm 2 mps 732 mmHg 76%
    22:00 +8°C° 0 mm 2 mps 732 mmHg 77%
    23:00 +7°C° 0 mm 2 mps 731 mmHg 78%

    4 April, Tuesday

    Time Temperature Precipitation Wind Pressure Humidity
    00:00 +7°C° 0 mm 2 mps 731 mmHg 79%
    01:00 +7°C° 0 mm 2 mps 731 mmHg 80%
    02:00 +7°C° 0 mm 1 mps 731 mmHg 81%
    03:00 +7°C° 0 mm 1 mps 730 mmHg 82%
    04:00 +7°C° 0 mm 1 mps 730 mmHg 83%
    05:00 +7°C° 0 mm 1 mps 730 mmHg 84%
    06:00 +8°C° 0 mm 1 mps 730 mmHg 78%
    07:00 +10°C° 0 mm 1 mps 730 mmHg 71%
    08:00 +12°C° 0 mm 1 mps 731 mmHg 65%
    09:00 +13°C° 0 mm 1 mps 731 mmHg 60%
    10:00 +15°C° 0 mm 2 mps 731 mmHg 56%
    11:00 +16°C° 0 mm 3 mps 731 mmHg 51%
    12:00 +16°C° 0 mm 3 mps 731 mmHg 50%
    13:00 +17°C° 0 mm 3 mps 731 mmHg 49%
    14:00 +17°C° 0 mm 3 mps 730 mmHg 48%
    15:00 +17°C° 0 mm 3 mps 730 mmHg 50%
    16:00 +16°C° 0 mm 3 mps 730 mmHg 53%
    17:00 +16°C° 0 mm 3 mps 730 mmHg 55%
    18:00 +14°C° 0.1 mm 3 mps 730 mmHg 62%
    19:00 +12°C° 0.1 mm 3 mps 730 mmHg 69%
    20:00 +10°C° 0.1 mm 3 mps 731 mmHg 76%
    21:00 +10°C° 0.2 mm 3 mps 731 mmHg 79%
    22:00 +9°C° 0.2 mm 2 mps 731 mmHg 82%
    23:00 +9°C° 0.2 mm 2 mps 731 mmHg 85%
    Show more